Time,TemperatureF,DewpointF,PressureIn,WindDirection,WindDirectionDegrees,WindSpeedMPH,WindSpeedGustMPH,Humidity,HourlyPrecipIn,Conditions,Clouds,dailyrainin,SoftwareType,DateUTC
2013-02-11 00:02:00,19.0,17.0,30.07,NW,319,13.0,-999.0,90,-99.99,,,-99.99,,2013-02-11 06:02:00,
2013-02-11 00:11:00,19.0,17.0,30.07,NW,319,13.0,-999.0,90,-99.99,,,-99.99,,2013-02-11 06:11:00,
2013-02-11 00:21:00,19.0,17.0,30.07,NW,315,13.0,-999.0,90,-99.99,,,-99.99,,2013-02-11 06:21:00,
2013-02-11 00:32:00,19.0,17.0,30.07,NW,315,13.0,-999.0,90,-99.99,,,-99.99,,2013-02-11 06:32:00,
2013-02-11 00:42:00,19.0,17.0,30.07,NW,315,13.0,-999.0,90,-99.99,,,-99.99,,2013-02-11 06:42:00,
2013-02-11 00:52:00,19.0,17.0,30.07,NW,315,13.0,-999.0,90,-99.99,,,-99.99,,2013-02-11 06:52:00,
2013-02-11 01:01:00,18.0,15.0,30.08,NW,309,13.0,-999.0,89,-99.99,,,-99.99,,2013-02-11 07:01:00,
2013-02-11 01:11:00,18.0,15.0,30.08,NW,304,11.0,-999.0,89,-99.99,,,-99.99,,2013-02-11 07:11:00,
2013-02-11 01:21:00,18.0,15.0,30.08,NW,304,11.0,-999.0,89,-99.99,,,-99.99,,2013-02-11 07:21:00,
2013-02-11 01:32:00,18.0,15.0,30.08,NW,304,11.0,-999.0,89,-99.99,,,-99.99,,2013-02-11 07:32:00,
2013-02-11 01:41:00,18.0,15.0,30.09,WNW,302,11.0,-999.0,89,-99.99,,,-99.99,,2013-02-11 07:41:00,
2013-02-11 01:52:00,18.0,15.0,30.09,WNW,302,11.0,-999.0,89,-99.99,,,-99.99,,2013-02-11 07:52:00,
2013-02-11 02:01:00,18.0,15.0,30.09,NW,317,10.0,-999.0,89,-99.99,,,-99.99,,2013-02-11 08:01:00,
2013-02-11 02:11:00,18.0,15.0,30.09,NW,317,10.0,-999.0,89,-99.99,,,-99.99,,2013-02-11 08:11:00,
2013-02-11 02:21:00,18.0,15.0,30.09,NW,315,11.0,-999.0,89,-99.99,,,-99.99,,2013-02-11 08:21:00,
2013-02-11 02:31:00,18.0,15.0,30.09,NW,310,11.0,-999.0,89,-99.99,,,-99.99,,2013-02-11 08:31:00,
2013-02-11 02:42:00,18.0,15.0,30.09,NW,312,10.0,-999.0,89,-99.99,,,-99.99,,2013-02-11 08:42:00,
2013-02-11 02:52:00,18.0,15.0,30.09,NW,312,10.0,-999.0,89,-99.99,,,-99.99,,2013-02-11 08:52:00,
2013-02-11 03:01:00,18.0,15.0,30.09,NW,312,10.0,-999.0,89,-99.99,,,-99.99,,2013-02-11 09:01:00,
2013-02-11 03:12:00,18.0,15.0,30.09,NW,312,10.0,-999.0,89,-99.99,,,-99.99,,2013-02-11 09:12:00,
2013-02-11 03:21:00,18.0,15.0,30.09,NW,313,11.0,-999.0,89,-99.99,,,-99.99,,2013-02-11 09:21:00,
2013-02-11 03:31:00,18.0,15.0,30.09,NW,309,8.0,-999.0,89,-99.99,,,-99.99,,2013-02-11 09:31:00,
2013-02-11 03:42:00,18.0,15.0,30.09,NW,309,8.0,-999.0,89,-99.99,,,-99.99,,2013-02-11 09:42:00,
2013-02-11 03:52:00,18.0,15.0,30.09,NW,306,7.0,-999.0,89,-99.99,,,-99.99,,2013-02-11 09:52:00,
2013-02-11 04:01:00,18.0,15.0,30.08,NW,305,7.0,-999.0,89,-99.99,,,-99.99,,2013-02-11 10:01:00,
2013-02-11 04:11:00,18.0,15.0,30.08,NW,305,7.0,-999.0,89,-99.99,,,-99.99,,2013-02-11 10:11:00,
2013-02-11 04:21:00,18.0,15.0,30.08,NW,305,7.0,-999.0,89,-99.99,,,-99.99,,2013-02-11 10:21:00,
2013-02-11 04:31:00,18.0,15.0,30.08,NW,304,9.0,-999.0,89,-99.99,,,-99.99,,2013-02-11 10:31:00,
2013-02-11 04:42:00,18.0,15.0,30.08,NW,304,9.0,-999.0,89,-99.99,,,-99.99,,2013-02-11 10:42:00,
2013-02-11 04:52:00,18.0,15.0,30.08,NW,304,9.0,-999.0,89,-99.99,,,-99.99,,2013-02-11 10:52:00,
2013-02-11 05:01:00,18.0,15.0,30.08,WNW,302,8.0,-999.0,89,-99.99,,,-99.99,,2013-02-11 11:01:00,
2013-02-11 05:11:00,18.0,15.0,30.08,WNW,302,8.0,-999.0,89,-99.99,,,-99.99,,2013-02-11 11:11:00,
2013-02-11 05:22:00,18.0,15.0,30.08,WNW,302,8.0,-999.0,89,-99.99,,,-99.99,,2013-02-11 11:22:00,
2013-02-11 05:32:00,18.0,15.0,30.08,WNW,302,6.0,-999.0,89,-99.99,,,-99.99,,2013-02-11 11:32:00,
2013-02-11 05:42:00,18.0,15.0,30.08,WNW,302,6.0,-999.0,89,-99.99,,,-99.99,,2013-02-11 11:42:00,
2013-02-11 05:52:00,18.0,15.0,30.08,WNW,302,6.0,-999.0,89,-99.99,,,-99.99,,2013-02-11 11:52:00,
2013-02-11 06:03:00,18.0,15.0,30.08,WNW,301,2.0,-999.0,89,-99.99,,,-99.99,,2013-02-11 12:03:00,
2013-02-11 06:12:00,18.0,15.0,30.08,WNW,301,2.0,-999.0,89,-99.99,,,-99.99,,2013-02-11 12:12:00,
2013-02-11 06:22:00,18.0,15.0,30.07,WNW,301,1.0,-999.0,89,-99.99,,,-99.99,,2013-02-11 12:22:00,
2013-02-11 06:32:00,18.0,16.0,30.07,WNW,301,0.0,-999.0,90,-99.99,,,-99.99,,2013-02-11 12:32:00,
2013-02-11 06:42:00,18.0,16.0,30.07,WNW,300,2.0,-999.0,90,-99.99,,,-99.99,,2013-02-11 12:42:00,
2013-02-11 06:52:00,18.0,16.0,30.07,WNW,300,2.0,-999.0,90,-99.99,,,-99.99,,2013-02-11 12:52:00,
2013-02-11 07:02:00,18.0,16.0,30.07,WNW,300,3.0,-999.0,91,-99.99,,,-99.99,,2013-02-11 13:02:00,
2013-02-11 07:11:00,18.0,16.0,30.07,WNW,300,3.0,-999.0,91,-99.99,,,-99.99,,2013-02-11 13:11:00,
2013-02-11 07:22:00,18.0,16.0,30.07,WNW,300,3.0,-999.0,91,-99.99,,,-99.99,,2013-02-11 13:22:00,
2013-02-11 07:32:00,18.0,16.0,30.06,WNW,300,0.0,-999.0,91,-99.99,,,-99.99,,2013-02-11 13:32:00,
2013-02-11 07:42:00,18.0,16.0,30.06,WNW,300,0.0,-999.0,91,-99.99,,,-99.99,,2013-02-11 13:42:00,
2013-02-11 07:52:00,18.0,16.0,30.06,WNW,300,0.0,-999.0,91,-99.99,,,-99.99,,2013-02-11 13:52:00,
2013-02-11 08:02:00,18.0,16.0,30.06,WNW,300,0.0,-999.0,92,-99.99,,,-99.99,,2013-02-11 14:02:00,
2013-02-11 08:11:00,18.0,16.0,30.06,WNW,300,0.0,-999.0,92,-99.99,,,-99.99,,2013-02-11 14:11:00,
2013-02-11 08:22:00,18.0,16.0,30.06,WNW,300,0.0,-999.0,92,-99.99,,,-99.99,,2013-02-11 14:22:00,
2013-02-11 08:33:00,18.0,16.0,30.06,WNW,300,0.0,-999.0,92,-99.99,,,-99.99,,2013-02-11 14:33:00,
2013-02-11 08:42:00,18.0,16.0,30.06,WNW,300,0.0,-999.0,92,-99.99,,,-99.99,,2013-02-11 14:42:00,
2013-02-11 08:53:00,18.0,16.0,30.06,WNW,300,0.0,-999.0,91,-99.99,,,-99.99,,2013-02-11 14:53:00,
2013-02-11 09:02:00,18.0,16.0,30.05,WNW,300,0.0,-999.0,90,-99.99,,,-99.99,,2013-02-11 15:02:00,
2013-02-11 09:11:00,18.0,16.0,30.05,WNW,300,0.0,-999.0,90,-99.99,,,-99.99,,2013-02-11 15:11:00,
2013-02-11 09:22:00,18.0,16.0,30.06,WNW,300,0.0,-999.0,90,-99.99,,,-99.99,,2013-02-11 15:22:00,
2013-02-11 09:32:00,19.0,16.0,30.05,WNW,299,4.0,-999.0,89,-99.99,,,-99.99,,2013-02-11 15:32:00,
2013-02-11 09:42:00,19.0,16.0,30.05,WNW,299,4.0,-999.0,89,-99.99,,,-99.99,,2013-02-11 15:42:00,
2013-02-11 09:52:00,19.0,16.0,30.05,WNW,299,4.0,-999.0,89,-99.99,,,-99.99,,2013-02-11 15:52:00,
2013-02-11 10:02:00,19.0,16.0,30.05,WNW,299,4.0,-999.0,89,-99.99,,,-99.99,,2013-02-11 16:02:00,
2013-02-11 10:11:00,19.0,16.0,30.05,WNW,299,4.0,-999.0,89,-99.99,,,-99.99,,2013-02-11 16:11:00,
2013-02-11 10:22:00,18.0,15.0,30.01,WNW,287,0.0,-999.0,87,-99.99,,,-99.99,,2013-02-11 16:22:00,
2013-02-11 10:32:00,19.0,16.0,30.02,West,276,4.0,-999.0,86,-99.99,,,-99.99,,2013-02-11 16:32:00,
2013-02-11 10:42:00,19.0,16.0,30.02,West,276,4.0,-999.0,86,-99.99,,,-99.99,,2013-02-11 16:42:00,
2013-02-11 10:52:00,19.0,16.0,30.02,West,276,4.0,-999.0,86,-99.99,,,-99.99,,2013-02-11 16:52:00,
2013-02-11 11:01:00,19.0,15.0,30.01,WSW,248,5.0,-999.0,85,-99.99,,,-99.99,,2013-02-11 17:01:00,
2013-02-11 11:11:00,19.0,15.0,30.01,WSW,248,5.0,-999.0,85,-99.99,,,-99.99,,2013-02-11 17:11:00,
2013-02-11 11:22:00,19.0,15.0,30.01,SW,236,7.0,-999.0,84,-99.99,,,-99.99,,2013-02-11 17:22:00,
2013-02-11 11:32:00,20.0,16.0,30.01,WSW,238,6.0,-999.0,84,-99.99,,,-99.99,,2013-02-11 17:32:00,
2013-02-11 11:42:00,20.0,16.0,30.01,WSW,238,6.0,-999.0,84,-99.99,,,-99.99,,2013-02-11 17:42:00,
2013-02-11 11:53:00,20.0,16.0,30.01,WSW,251,5.0,-999.0,83,-99.99,,,-99.99,,2013-02-11 17:53:00,
2013-02-11 12:01:00,21.0,17.0,29.99,SW,225,6.0,-999.0,83,-99.99,,,-99.99,,2013-02-11 18:01:00,
2013-02-11 12:11:00,21.0,17.0,29.99,SW,225,6.0,-999.0,83,-99.99,,,-99.99,,2013-02-11 18:11:00,
2013-02-11 12:21:00,22.0,17.0,29.99,SW,223,6.0,-999.0,82,-99.99,,,-99.99,,2013-02-11 18:21:00,
2013-02-11 12:32:00,22.0,17.0,29.99,SW,223,6.0,-999.0,82,-99.99,,,-99.99,,2013-02-11 18:32:00,
2013-02-11 12:42:00,22.0,17.0,29.99,SW,223,6.0,-999.0,82,-99.99,,,-99.99,,2013-02-11 18:42:00,
2013-02-11 12:53:00,23.0,18.0,29.98,WSW,245,6.0,-999.0,81,-99.99,,,-99.99,,2013-02-11 18:53:00,
2013-02-11 13:02:00,23.0,18.0,29.98,WSW,245,6.0,-999.0,81,-99.99,,,-99.99,,2013-02-11 19:02:00,
2013-02-11 13:11:00,24.0,18.0,29.96,SW,222,9.0,-999.0,79,-99.99,,,-99.99,,2013-02-11 19:11:00,
2013-02-11 13:21:00,24.0,18.0,29.96,SW,222,9.0,-999.0,79,-99.99,,,-99.99,,2013-02-11 19:21:00,
2013-02-11 13:32:00,24.0,18.0,29.96,SW,222,9.0,-999.0,79,-99.99,,,-99.99,,2013-02-11 19:32:00,
2013-02-11 13:42:00,24.0,18.0,29.96,SW,222,9.0,-999.0,79,-99.99,,,-99.99,,2013-02-11 19:42:00,
2013-02-11 13:51:00,26.0,20.0,29.93,SW,219,8.0,-999.0,78,-99.99,,,-99.99,,2013-02-11 19:51:00,
2013-02-11 14:01:00,27.0,21.0,29.93,WSW,250,9.0,-999.0,78,-99.99,,,-99.99,,2013-02-11 20:01:00,
2013-02-11 14:11:00,28.0,22.0,29.93,WSW,237,8.0,-999.0,77,-99.99,,,-99.99,,2013-02-11 20:11:00,
2013-02-11 14:21:00,28.0,22.0,29.93,WSW,237,8.0,-999.0,77,-99.99,,,-99.99,,2013-02-11 20:21:00,
2013-02-11 14:32:00,28.0,22.0,29.93,WSW,237,8.0,-999.0,77,-99.99,,,-99.99,,2013-02-11 20:32:00,
2013-02-11 14:42:00,29.0,22.0,29.91,WSW,246,10.0,-999.0,76,-99.99,,,-99.99,,2013-02-11 20:42:00,
2013-02-11 14:52:00,29.0,22.0,29.91,WSW,246,10.0,-999.0,76,-99.99,,,-99.99,,2013-02-11 20:52:00,
2013-02-11 15:02:00,29.0,22.0,29.89,SW,224,8.0,-999.0,76,-99.99,,,-99.99,,2013-02-11 21:02:00,
2013-02-11 15:11:00,30.0,23.0,29.89,WSW,241,9.0,-999.0,75,-99.99,,,-99.99,,2013-02-11 21:11:00,
2013-02-11 15:21:00,30.0,23.0,29.89,WSW,241,9.0,-999.0,75,-99.99,,,-99.99,,2013-02-11 21:21:00,
2013-02-11 15:32:00,31.0,24.0,29.91,WSW,252,7.0,-999.0,74,-99.99,,,-99.99,,2013-02-11 21:32:00,
2013-02-11 15:42:00,31.0,24.0,29.91,WSW,252,7.0,-999.0,74,-99.99,,,-99.99,,2013-02-11 21:42:00,
2013-02-11 15:52:00,30.0,22.0,29.91,West,259,10.0,-999.0,72,-99.99,,,-99.99,,2013-02-11 21:52:00,
2013-02-11 16:01:00,31.0,23.0,29.91,WSW,242,7.0,-999.0,71,-99.99,,,-99.99,,2013-02-11 22:01:00,
2013-02-11 16:11:00,31.0,23.0,29.90,WSW,253,6.0,-999.0,72,-99.99,,,-99.99,,2013-02-11 22:11:00,
2013-02-11 16:22:00,31.0,23.0,29.90,WSW,253,6.0,-999.0,72,-99.99,,,-99.99,,2013-02-11 22:22:00,
2013-02-11 16:32:00,32.0,24.0,29.89,WSW,238,2.0,-999.0,71,-99.99,,,-99.99,,2013-02-11 22:32:00,
2013-02-11 16:42:00,32.0,24.0,29.89,WSW,238,2.0,-999.0,71,-99.99,,,-99.99,,2013-02-11 22:42:00,
2013-02-11 16:52:00,32.0,24.0,29.88,SW,234,6.0,-999.0,72,-99.99,,,-99.99,,2013-02-11 22:52:00,
2013-02-11 17:01:00,32.0,24.0,29.88,SW,234,6.0,-999.0,72,-99.99,,,-99.99,,2013-02-11 23:01:00,
2013-02-11 17:11:00,32.0,24.0,29.88,SW,234,6.0,-999.0,72,-99.99,,,-99.99,,2013-02-11 23:11:00,
2013-02-11 17:21:00,32.0,24.0,29.88,SW,234,6.0,-999.0,72,-99.99,,,-99.99,,2013-02-11 23:21:00,
2013-02-11 17:32:00,32.0,24.0,29.88,SW,234,6.0,-999.0,72,-99.99,,,-99.99,,2013-02-11 23:32:00,
2013-02-11 18:02:00,29.0,22.0,29.87,WSW,243,0.0,-999.0,74,-99.99,,,-99.99,,2013-02-12 00:02:00,
2013-02-11 18:11:00,29.0,22.0,29.87,WSW,243,0.0,-999.0,74,-99.99,,,-99.99,,2013-02-12 00:11:00,
2013-02-11 18:22:00,29.0,22.0,29.87,WSW,243,0.0,-999.0,74,-99.99,,,-99.99,,2013-02-12 00:22:00,
2013-02-11 18:32:00,28.0,21.0,29.87,WSW,243,1.0,-999.0,76,-99.99,,,-99.99,,2013-02-12 00:32:00,
2013-02-11 18:42:00,28.0,21.0,29.87,WSW,243,1.0,-999.0,76,-99.99,,,-99.99,,2013-02-12 00:42:00,
2013-02-11 18:52:00,28.0,21.0,29.87,WSW,243,1.0,-999.0,76,-99.99,,,-99.99,,2013-02-12 00:52:00,
2013-02-11 19:02:00,27.0,21.0,29.86,WSW,242,0.0,-999.0,77,-99.99,,,-99.99,,2013-02-12 01:02:00,
2013-02-11 19:11:00,27.0,21.0,29.86,WSW,242,0.0,-999.0,77,-99.99,,,-99.99,,2013-02-12 01:11:00,
2013-02-11 19:22:00,27.0,21.0,29.86,WSW,242,0.0,-999.0,79,-99.99,,,-99.99,,2013-02-12 01:22:00,
2013-02-11 19:32:00,25.0,20.0,29.86,WSW,242,1.0,-999.0,80,-99.99,,,-99.99,,2013-02-12 01:32:00,
2013-02-11 19:42:00,25.0,20.0,29.86,WSW,242,1.0,-999.0,80,-99.99,,,-99.99,,2013-02-12 01:42:00,
2013-02-11 19:52:00,25.0,21.0,29.86,WSW,245,2.0,-999.0,83,-99.99,,,-99.99,,2013-02-12 01:52:00,
2013-02-11 20:01:00,25.0,21.0,29.86,WSW,249,5.0,-999.0,83,-99.99,,,-99.99,,2013-02-12 02:01:00,
2013-02-11 20:11:00,25.0,21.0,29.86,WSW,249,5.0,-999.0,83,-99.99,,,-99.99,,2013-02-12 02:11:00,
2013-02-11 20:21:00,24.0,19.0,29.88,WSW,250,0.0,-999.0,82,-99.99,,,-99.99,,2013-02-12 02:21:00,
2013-02-11 20:31:00,23.0,19.0,29.87,WSW,250,0.0,-999.0,83,-99.99,,,-99.99,,2013-02-12 02:31:00,
2013-02-11 20:41:00,23.0,19.0,29.87,WSW,250,0.0,-999.0,83,-99.99,,,-99.99,,2013-02-12 02:41:00,
2013-02-11 20:52:00,23.0,19.0,29.87,WSW,250,0.0,-999.0,83,-99.99,,,-99.99,,2013-02-12 02:52:00,
2013-02-11 21:02:00,21.0,17.0,29.85,WSW,250,0.0,-999.0,86,-99.99,,,-99.99,,2013-02-12 03:02:00,
2013-02-11 21:11:00,21.0,17.0,29.85,WSW,250,0.0,-999.0,86,-99.99,,,-99.99,,2013-02-12 03:11:00,
2013-02-11 21:21:00,22.0,19.0,29.85,WSW,254,0.0,-999.0,88,-99.99,,,-99.99,,2013-02-12 03:21:00,
2013-02-11 21:32:00,22.0,19.0,29.85,WSW,254,0.0,-999.0,88,-99.99,,,-99.99,,2013-02-12 03:32:00,
2013-02-11 21:41:00,25.0,21.0,29.85,WNW,296,8.0,-999.0,83,-99.99,,,-99.99,,2013-02-12 03:41:00,
2013-02-11 21:52:00,25.0,21.0,29.85,WNW,296,8.0,-999.0,83,-99.99,,,-99.99,,2013-02-12 03:52:00,
2013-02-11 22:01:00,25.0,20.0,29.85,NW,310,8.0,-999.0,80,-99.99,,,-99.99,,2013-02-12 04:01:00,
2013-02-11 22:11:00,25.0,20.0,29.85,NW,310,8.0,-999.0,80,-99.99,,,-99.99,,2013-02-12 04:11:00,
2013-02-11 22:21:00,24.0,19.0,29.85,WNW,301,9.0,-999.0,81,-99.99,,,-99.99,,2013-02-12 04:21:00,
2013-02-11 22:31:00,24.0,19.0,29.85,WNW,294,9.0,-999.0,81,-99.99,,,-99.99,,2013-02-12 04:31:00,
2013-02-11 22:41:00,24.0,19.0,29.85,WNW,294,9.0,-999.0,81,-99.99,,,-99.99,,2013-02-12 04:41:00,
2013-02-11 22:52:00,24.0,19.0,29.84,West,271,16.0,-999.0,80,-99.99,,,-99.99,,2013-02-12 04:52:00,
2013-02-11 23:01:00,24.0,19.0,29.85,West,273,16.0,-999.0,80,-99.99,,,-99.99,,2013-02-12 05:01:00,
2013-02-11 23:11:00,24.0,19.0,29.85,West,273,16.0,-999.0,80,-99.99,,,-99.99,,2013-02-12 05:11:00,
2013-02-11 23:21:00,23.0,18.0,29.85,West,270,16.0,-999.0,81,-99.99,,,-99.99,,2013-02-12 05:21:00,
2013-02-11 23:31:00,23.0,18.0,29.85,West,270,16.0,-999.0,81,-99.99,,,-99.99,,2013-02-12 05:31:00,
2013-02-11 23:42:00,23.0,18.0,29.85,West,270,16.0,-999.0,81,-99.99,,,-99.99,,2013-02-12 05:42:00,
2013-02-11 23:52:00,23.0,18.0,29.85,WNW,298,9.0,-999.0,82,-99.99,,,-99.99,,2013-02-12 05:52:00,